Location: AstroGeek's Observatory
(41.9520°N, 70.9880°W)
Time: 14:28:47
(UTC-05:00)

ISS - All Passes

Search period start: 24 February 2017 00:00
Search period end: 06 March 2017 00:00
Orbit: 399 x 408 km, 51.6° (Epoch: 25 February)

Date Brightness Start Highest point End Pass type
(mag) Time Alt. Az. Time Alt. Az. Time Alt. Az.
24 Feb - 07:16:37 10° S 07:19:09 21° SE 07:21:43 10° E daylight
24 Feb - 08:52:12 10° WSW 08:55:24 49° NNW 08:58:38 10° NE daylight
24 Feb - 10:30:10 10° NW 10:32:28 17° N 10:34:45 10° NNE daylight
24 Feb - 12:07:35 10° NNW 12:09:52 17° N 12:12:08 10° NE daylight
24 Feb - 13:43:43 10° NW 13:46:55 48° NNE 13:50:06 10° ESE daylight
24 Feb - 15:20:38 10° W 15:23:11 21° SW 15:25:42 10° S daylight
25 Feb - 06:25:54 10° SSE 06:26:52 11° SE 06:27:52 10° ESE daylight
25 Feb - 07:59:34 10° SW 08:02:51 87° NW 08:06:10 10° NE daylight
25 Feb - 09:37:06 10° WNW 09:39:42 21° NNW 09:42:18 10° NE daylight
25 Feb - 11:15:00 10° NW 11:17:04 15° N 11:19:09 10° NE daylight
25 Feb - 12:51:19 10° NW 12:54:17 31° NNE 12:57:16 10° E daylight
25 Feb - 14:27:42 10° WNW 14:30:49 39° SW 14:33:53 10° SSE daylight
26 Feb - 07:07:12 10° SW 07:10:22 48° SE 07:13:34 10° ENE daylight
26 Feb - 08:44:04 10° W 08:46:58 28° NNW 08:49:53 10° NE daylight
26 Feb - 10:22:11 10° NW 10:24:14 15° N 10:26:17 10° NE daylight
26 Feb - 11:58:54 10° NW 12:01:34 22° NNE 12:04:15 10° ENE daylight
26 Feb - 13:35:04 10° WNW 13:38:20 78° SW 13:41:37 10° SE daylight
27 Feb - 06:15:11 10° SSW 06:17:57 25° SE 06:20:45 10° ENE daylight
27 Feb - 07:51:08 10° W 07:54:18 41° NNW 07:57:27 10° NE daylight
27 Feb - 09:29:12 10° NW 09:31:24 16° N 09:33:37 10° NNE daylight
27 Feb - 11:06:26 10° NW 11:08:48 18° NNE 11:11:10 10° ENE daylight
27 Feb - 12:42:32 10° NW 12:45:47 57° NNE 12:49:01 10° ESE daylight
27 Feb - 14:19:43 10° W 14:21:57 17° SW 14:24:11 10° S daylight
28 Feb - 05:23:53 10° SSE 05:25:36 14° SE 05:27:21 10° E visible
28 Feb - 06:58:23 10° WSW 07:01:41 72° NNW 07:04:59 10° NE daylight
28 Feb - 08:36:05 10° WNW 08:38:35 19° NNW 08:41:05 10° NE daylight
28 Feb - 10:13:50 10° NW 10:15:58 16° N 10:18:06 10° NE daylight
28 Feb - 11:50:04 10° NW 11:53:09 35° NNE 11:56:12 10° E daylight
28 Feb - 13:26:36 10° WNW 13:29:35 32° SW 13:32:32 10° SSE daylight
01 Mar - 06:05:53 10° SW 06:09:07 60° SE 06:12:24 10° ENE daylight
01 Mar - 07:43:00 10° WNW 07:45:49 25° NNW 07:48:37 10° NE daylight
01 Mar - 09:21:04 10° NW 09:23:07 15° N 09:25:08 10° NE daylight
01 Mar - 10:57:38 10° NW 11:00:25 24° NNE 11:03:12 10° ENE daylight
01 Mar - 12:33:50 10° WNW 12:37:06 63° SW 12:40:20 10° SE daylight
02 Mar - 05:13:43 10° SSW 05:16:39 31° SE 05:19:36 10° ENE visible
02 Mar - 06:49:59 10° W 06:53:04 36° NNW 06:56:10 10° NE daylight
02 Mar - 08:28:05 10° NW 08:30:14 16° N 08:32:22 10° NE daylight
02 Mar - 10:05:09 10° NW 10:07:37 19° NNE 10:10:05 10° ENE daylight
02 Mar - 11:41:15 10° NW 11:44:32 69° NNE 11:47:48 10° ESE daylight
02 Mar - 13:18:48 10° W 13:20:37 14° SW 13:22:25 10° SSW daylight
03 Mar - 04:22:04 10° S 04:24:15 17° SE 04:26:26 10° E visible
03 Mar - 05:57:08 10° WSW 06:00:24 59° NNW 06:03:40 10° NE daylight
03 Mar - 07:34:58 10° WNW 07:37:22 18° NNW 07:39:45 10° NE daylight
03 Mar - 09:12:34 10° NNW 09:14:45 16° N 09:16:57 10° NE daylight
03 Mar - 10:48:44 10° NW 10:51:53 40° NNE 10:55:00 10° E daylight
03 Mar - 12:25:24 10° WNW 12:28:14 26° SW 12:31:01 10° SSE daylight
04 Mar - 05:04:30 10° SW 05:07:47 75° SE 05:11:04 10° ENE visible
04 Mar - 06:41:49 10° WNW 06:44:32 23° NNW 06:47:15 10° NE daylight
04 Mar - 08:19:48 10° NW 08:21:52 15° N 08:23:54 10° NE daylight
04 Mar - 09:56:14 10° NW 09:59:08 27° NNE 10:02:00 10° E daylight
04 Mar - 11:32:32 10° WNW 11:35:44 50° SW 11:38:55 10° SE daylight
05 Mar - 04:12:10 10° SSW 04:15:14 38° SE 04:18:20 10° ENE visible
05 Mar - 05:48:44 10° W 05:51:44 31° NNW 05:54:45 10° NE daylight
05 Mar - 07:26:52 10° NW 07:28:57 15° N 07:31:02 10° NE daylight
05 Mar - 09:03:44 10° NW 09:06:19 20° NNE 09:08:52 10° ENE daylight
05 Mar - 10:39:51 10° NW 10:43:09 84° NE 10:46:26 10° ESE daylight
05 Mar - 12:17:59 10° WSW 12:19:09 11° SW 12:20:18 10° SSW daylight
